Flag for Italy

Past Weather in Trieste, Italy — Yesterday and Last 2 Weeks

Now
68 °F

Sunny.


Feels Like: 68 °F
Forecast: 87 / 67 °F
Wind: 1 mph from Northeast

Location: Trieste

Current Time: Jul 10, 2020 at 8:34:50 am

Latest Report: Jul 10, 2020 at 7:00 am


Visibility: 13 mi

Pressure: 29.98 "Hg

Humidity: 87%

Dew Point: 64 °F

Location of TriesteLocation

Past Weather in Trieste — Graph

°F

Trieste Temperature Yesterday

Maximum temperature yesterday: 81 °F (at 5:00 pm)
Minimum temperature yesterday: 64 °F (at 6:00 am)
Average temperature yesterday: 73 °F

High & Low Weather Summary for the Past Weeks

 TemperatureHumidityPressure
High88 °F (Jul 6, 3:00 pm)100% (Jul 7, 3:00 pm)30.08 "Hg (Jul 7, 3:00 pm)
Low61 °F (Jul 7, 5:00 am)34% (Jul 7, 4:00 pm)29.69 "Hg (Jul 6, 10:00 pm)
Average76 °F69%29.94 "Hg
* Reported Jun 25 7:00 am — Jul 10 7:00 am, Trieste. Weather by CustomWeather, © 2020

Note: Actual official high and low records may vary slightly from our data, if they occured in-between our weather recording intervals... More about our weather records

Trieste Weather History for the Previous 24 Hours

Scroll right to see more
 ConditionsComfort  
Time TempWeatherWind HumidityBarometerVisibility
7:00 am
Fri, Jul 10
68 °FSunny.1 mph87%29.98 "Hg12 mi
6:00 am67 °FSunny.No wind85%29.98 "Hg12 mi
5:00 am68 °FClear.2 mph88%29.98 "Hg12 mi
4:00 am68 °FClear.2 mph90%29.98 "Hg12 mi
3:00 am69 °FClear.2 mph85%29.99 "Hg12 mi
2:00 am70 °FClear.2 mph81%29.99 "Hg12 mi
1:00 am71 °FClear.No wind65%29.99 "Hg12 mi
12:00 am72 °FClear.1 mph63%29.99 "Hg12 mi
11:00 pm
Thu, Jul 9
73 °FClear.No wind60%29.99 "Hg12 mi
10:00 pm73 °FPassing clouds.1 mph62%29.99 "Hg12 mi
9:00 pm77 °FClear.No wind70%29.98 "Hg12 mi
8:00 pm79 °FSunny.No wind84%29.98 "Hg12 mi
7:00 pm80 °FSunny.1 mph80%29.99 "Hg12 mi
6:00 pm80 °FSunny.2 mph78%29.99 "Hg12 mi
5:00 pm81 °FSunny.1 mph66%30.01 "Hg12 mi
4:00 pm79 °FSunny.2 mph80%30.02 "Hg12 mi
3:00 pm79 °FSunny.No wind65%30.02 "Hg12 mi
2:00 pm80 °FSunny.No wind56%30.02 "Hg12 mi
1:00 pm76 °FSunny.No wind60%30.03 "Hg12 mi
12:00 pm77 °FSunny.No wind65%30.03 "Hg12 mi
11:00 am74 °FSunny.No wind69%30.04 "Hg12 mi
10:00 am72 °FSunny.No wind76%30.04 "Hg12 mi
9:00 am70 °FSunny.No wind75%30.04 "Hg12 mi
8:00 am70 °FSunny.No wind78%30.03 "Hg12 mi
Weather by CustomWeather, © 2020

See weather overview